This demonstration page uses our WeatherBlox Daily Observations layout. Learn more.

Left ArrowRight Arrow

38.83388, -104.82136

Hourly Observations for January 23, 2021

Temp ( °F °C ) Dew Point ( °F °C ) Humidity (%) Winds ( mph kmh ) Pressure ( in mb ) Visibility ( mi km ) Precip ( " mm )
12:54 am 00:54 Mostly Clear 23 -5 18 -7.8 81 81 ENE 9 15 29.84 1010 10 16 0.00 0.00
1:54 am 01:54 Mostly Clear 21 -6.1 16 -8.9 81 81 NNE 5 7 29.83 1010 10 16 0.00 0.00
2:54 am 02:54 Partly Cloudy 19 -7.2 15 -9.4 84 84 N 6 9 29.83 1010 10 16 0.00 0.00
3:54 am 03:54 Partly Cloudy 20 -6.7 16 -8.9 85 85 N 6 9 29.81 1010 10 16 0.00 0.00
4:54 am 04:54 Partly Cloudy 19 -7.2 14 -10 81 81 VRB 5 7 29.80 1009 10 16 0.00 0.00
5:54 am 05:54 Mostly Clear 18 -7.8 13 -10.6 81 81 NE 5 7 29.81 1010 10 16 0.00 0.00
6:54 am 06:54 Mostly Clear 20 -6.7 14 -10 78 78 ENE 5 7 29.81 1009 10 16 0.00 0.00
7:54 am 07:54 Mostly Sunny 23 -5 17 -8.3 78 78 ENE 5 7 29.81 1009 9 14 0.00 0.00
8:54 am 08:54 Mostly Sunny 31 -0.6 22 -5.6 69 69 NE 3 6 29.79 1009 10 16 0.00 0.00
9:54 am 09:54 Mostly Sunny 35 1.7 23 -5 61 61 Calm 29.77 1008 10 16 0.00 0.00
10:54 am 10:54 Partly Cloudy 42 5.6 23 -5 47 47 SE 6 9 29.72 1006 10 16 0.00 0.00
11:54 am 11:54 Partly Cloudy 48 8.9 21 -6.1 34 34 ESE 3 6 29.68 1005 10 16 0.00 0.00
12:54 pm 12:54 Partly Cloudy 51 10.6 17 -8.3 26 26 E 8 13 29.64 1004 10 16 0.00 0.00
1:54 pm 13:54 Mostly Cloudy 52 11.1 14 -10 22 22 VRB 3 6 29.62 1003 10 16 0.00 0.00
2:54 pm 14:54 Mostly Cloudy 54 12.2 13 -10.6 19 19 VRB 7 11 29.62 1003 10 16 0.00 0.00
3:54 pm 15:54 Partly Cloudy 54 12.2 12 -11.1 19 19 VRB 3 6 29.64 1004 10 16 0.00 0.00
4:54 pm 16:54 Mostly Cloudy 48 8.9 17 -8.3 29 29 S 12 19 29.70 1006 10 16 0.00 0.00
5:54 pm 17:54 Mostly Cloudy 46 7.8 16 -8.9 30 30 NW 21 33 29.76 1008 10 16 0.00 0.00
6:47 pm 18:47 Mostly Cloudy 38 3.3 20 -6.7 48 48 NE 18 30 29.74 1007 10 16 0.00 0.00
6:54 pm 18:54 Mostly Cloudy 38 3.3 19 -7.2 46 46 NE 18 30 29.84 1011 10 16 0.00 0.00
7:54 pm 19:54 Partly Cloudy 41 5 6 -14.4 23 23 NNW 10 17 29.84 1010 10 16 0.00 0.00
8:54 pm 20:54 Mostly Clear 34 1.1 13 -10.6 42 42 W 7 11 29.86 1011 10 16 0.00 0.00
9:54 pm 21:54 Clear 28 -2.2 19 -7.2 69 69 NE 13 20 29.89 1012 10 16 0.00 0.00
10:54 pm 22:54 Clear 28 -2.2 17 -8.3 63 63 WNW 6 9 29.88 1012 10 16 0.00 0.00
11:54 pm 23:54 Clear 26 -3.3 17 -8.3 69 69 W 6 9 29.86 1011 10 16 0.00 0.00

Powered by AerisWeather